Regional Weather Roundup
Issued by NWS

Home | Current Version | Previous Version | Graphics & Text | Print | Product List | Glossary On
Versions: 1 2 3 4 5 6 7 8 9 10 11 12 13 14 15 16 17 18 19 20 21 22 23 24 25 26 27 28 29 30 31 32 33 34 35 36 37 38 39 40 41 42 43 44 45 46 47 48 49 50
000
ASUS45 KCYS 231110
RWRWY

WYOMING REGIONAL WEATHER ROUNDUP
NATIONAL WEATHER SERVICE CHEYENNE WY
500 AM MDT SAT MAY 23 2015

NOTE:  "FAIR" INDICATES FEW OR NO CLOUDS BELOW 12,000 FEET
WITH NO SIGNIFICANT WEATHER AND/OR OBSTRUCTIONS TO VISIBILITY.

WYZ001-231200-
YELLOWSTONE NATIONAL PARK

CITY           SKY/WX    TMP DP  RH WIND       PRES   REMARKS
LK YELLOWSTONE   N/A     36  34  92 CALM      30.03S
W YELLOWSTONE  NOT AVBL

$$
WYZ002>013-054>058-071-098>099-231200-
NORTHERN WYOMING

CITY           SKY/WX    TMP DP  RH WIND       PRES   REMARKS
JACKSON        CLOUDY    43  41  93 CALM      29.96S
CODY           CLOUDY    48  46  93 CALM      29.96F
GREYBULL       LGT RAIN  53  50  89 W6        29.92S
WORLAND        LGT RAIN  52  50  93 SE5       29.93S
SHERIDAN       CLOUDY    47  43  86 NW3       29.96S
BUFFALO        CLOUDY    45  44  97 SE8       29.97F
GILLETTE       CLOUDY    46  43  89 SE8       29.99S
HULETT         CLOUDY    45  41  87 CALM      30.03S
NEWCASTLE      CLOUDY    45  43  93 SE13G18   30.02F

$$
WYZ014>020-022>026-101>103-231200-
CENTRAL WYOMING

CITY           SKY/WX    TMP DP  RH WIND       PRES   REMARKS
BIG PINEY      LGT RAIN  40  38  93 NW6       29.99S
PINEDALE       RAIN      41  41 100 SE9       29.99F
DUBOIS         CLOUDY    39  36  87 CALM      29.98S
LANDER         CLOUDY    44  42  93 CALM      29.93F
RIVERTON         N/A    N/A N/A N/A MISG      29.95S
CASPER         FOG       39  38  96 CALM      29.97S VSB 1/4
DOUGLAS        CLOUDY    43  43 100 SE17      29.99F FOG

$$
WYZ021-027>030-104>119-231200-
SOUTHERN WYOMING

CITY           SKY/WX    TMP DP  RH WIND       PRES   REMARKS
EVANSTON       CLOUDY    38  37  97 CALM      29.96F
KEMMERER       PTSUNNY   37  37 100 CALM      29.97F
FORT BRIDGER   MOSUNNY   37  37 100 NW6       29.98F WCI  33
ROCK SPRINGS   FAIR      39  36  89 SE7       29.98F WCI  34
DIXON          FAIR      37  34  91 E3        30.02S
RAWLINS        FAIR      35  32  88 CALM      30.00F
SARATOGA       FAIR      41  36  81 SE9       30.02S
LARAMIE        FAIR      38  36  92 SE10      30.01F WCI  31
CHEYENNE       CLOUDY    43  42  97 S9        30.03F FOG
TORRINGTON     CLOUDY    45  43  93 E7        30.02F FOG
PINE BLUFFS    FOG       43  43 100 SE3       30.03F VSB 3/4

$$


USA.gov is the U.S. government's official web portal to all federal, state and local government web resources and services.